FW0014 Weather Reports


time (UTC)temp
F
wind
direction
speed
knots
gust
knots
rain 1hr
in
rain 24hr
in
rain mn
in
humidity
%
barometer
mb
20260505005552 76 199 0.0 0.0 0.00 0.00 0.00 66 1007.8
20260505005324 77 186 0.0 0.0 0.00 0.00 0.00 66 1009.5
20260505005042 77 199 0.0 0.0 0.00 0.00 0.00 66 1007.8
20260505004840 77 214 0.0 0.0 0.00 0.00 0.00 66 1009.5
20260505004513 77 204 0.0 0.0 0.00 0.00 0.00 65 1007.9
20260505004314 78 187 0.0 0.0 0.00 0.00 0.00 65 1009.6
20260505004100 77 192 0.0 0.0 0.00 0.00 0.00 65 1007.9
20260505003830 78 181 0.0 0.0 0.00 0.00 0.00 65 1009.6
20260505003550 78 200 0.0 0.0 0.00 0.00 0.00 64 1008.1
20260505003327 78 197 0.0 0.0 0.00 0.00 0.00 64 1009.7
20260505003045 78 218 0.0 0.0 0.00 0.00 0.00 64 1008.1
20260505002823 78 208 0.0 0.0 0.00 0.00 0.00 63 1009.8
20260505002538 78 192 0.0 0.0 0.00 0.00 0.00 63 1008.1
20260505002318 79 176 0.0 0.0 0.00 0.00 0.00 63 1009.8
20260505002028 78 185 0.0 0.0 0.00 0.00 0.00 63 1008.1
20260505001815 79 213 0.0 0.0 0.00 0.00 0.00 63 1009.8
20260505001512 79 191 0.0 0.0 0.00 0.00 0.00 63 1008.1
20260505001331 79 201 0.0 0.0 0.00 0.00 0.00 63 1009.7
20260505001003 79 213 0.0 0.0 0.00 0.00 0.00 63 1008.0
20260505000848 79 211 0.0 0.0 0.00 0.00 0.00 63 1009.6
20260505000540 79 194 0.0 0.0 0.00 0.00 0.00 63 1008.0
20260505000322 79 186 0.0 0.0 0.00 0.00 0.00 63 1009.7
20260505000037 79 187 0.0 0.0 0.00 0.00 0.00 63 1008.0
20260504235818 79 184 0.0 0.0 0.00 0.00 0.00 62 1009.6
20260504235526 79 204 0.0 0.0 0.00 0.00 0.00 62 1008.1
20260504235315 80 205 0.0 0.0 0.00 0.00 0.00 61 1009.6
20260504235012 79 194 0.0 0.0 0.00 0.00 0.00 61 1008.0
20260504234850 80 187 0.0 0.0 0.00 0.00 0.00 61 1009.6
20260504234542 80 152 0.0 0.0 0.00 0.00 0.00 61 1007.9
20260504234345 80 224 0.0 0.0 0.00 0.00 0.00 61 1009.5
20260504234006 80 224 0.0 0.0 0.00 0.00 0.00 60 1008.0
20260504233820 80 224 0.0 0.0 0.00 0.00 0.00 60 1009.6
20260504233600 80 185 0.0 0.0 0.00 0.00 0.00 61 1008.0
20260504233315 81 180 0.0 0.0 0.00 0.00 0.00 61 1009.6
20260504233052 80 196 0.0 0.0 0.00 0.00 0.00 61 1008.1
20260504232832 80 211 0.0 0.0 0.00 0.00 0.00 60 1009.8
20260504232543 80 213 0.0 0.0 0.00 0.00 0.00 61 1008.2
20260504232328 80 206 0.0 0.0 0.00 0.00 0.00 62 1009.9
20260504232036 80 211 0.0 0.0 0.00 0.00 0.00 61 1008.1
20260504231845 80 208 0.0 0.0 0.00 0.00 0.00 61 1009.7
20260504231625 80 207 0.0 0.0 0.00 0.00 0.00 61 1008.3
20260504231320 80 192 0.0 0.0 0.00 0.00 0.00 61 1009.9
20260504231052 80 206 0.0 0.0 0.00 0.00 0.00 61 1008.0
20260504230817 81 222 0.0 0.0 0.00 0.00 0.00 60 1009.7
20260504230542 80 212 0.0 0.0 0.00 0.00 0.00 60 1008.1
20260504230314 81 181 0.0 0.0 0.00 0.00 0.00 60 1009.6
20260504230034 80 195 0.0 0.0 0.00 0.00 0.00 59 1008.1
20260504225830 81 206 0.0 0.0 0.00 0.00 0.00 59 1009.7
20260504225526 81 154 0.0 0.0 0.00 0.00 0.00 59 1008.1
20260504225347 81 192 0.0 0.0 0.00 0.00 0.00 59 1009.8
20260504225056 81 185 0.0 0.0 0.00 0.00 0.00 59 1008.1
20260504224821 82 174 0.0 0.0 0.00 0.00 0.00 59 1009.8
20260504224544 81 154 0.0 0.0 0.00 0.00 0.00 59 1008.2
20260504224401 82 197 0.0 0.0 0.00 0.00 0.00 58 1009.9
20260504224016 81 209 0.0 0.0 0.00 0.00 0.00 59 1008.2
20260504223830 82 199 0.0 0.0 0.00 0.00 0.00 59 1010.0
20260504223502 82 191 0.0 0.0 0.00 0.00 0.00 59 1008.3
20260504223347 82 212 0.0 0.0 0.00 0.00 0.00 60 1009.9
20260504223034 81 212 0.0 0.0 0.00 0.00 0.00 60 1008.2
20260504222843 82 190 0.0 0.0 0.00 0.00 0.00 59 1009.9
20260504222601 81 164 0.0 0.0 0.00 0.00 0.00 59 1008.3
20260504222318 82 229 0.0 0.0 0.00 0.00 0.00 60 1010.0
20260504222051 81 185 0.0 0.0 0.00 0.00 0.00 60 1008.4
20260504221853 81 179 0.0 0.0 0.00 0.00 0.00 59 1010.2
20260504221514 81 171 0.0 0.0 0.00 0.00 0.00 59 1008.6
20260504221328 81 199 0.0 0.0 0.00 0.00 0.00 59 1010.1
20260504221007 81 223 0.0 0.0 0.00 0.00 0.00 59 1008.5
20260504220823 82 207 0.0 0.0 0.00 0.00 0.00 58 1010.1
20260504220604 81 194 0.0 0.0 0.00 0.00 0.00 59 1008.6
20260504220318 82 201 0.0 0.0 0.00 0.00 0.00 59 1010.3
20260504220052 81 241 0.0 0.0 0.00 0.00 0.00 60 1008.6
20260504215833 81 211 0.0 0.0 0.00 0.00 0.00 60 1010.2
20260504215546 81 201 0.0 0.0 0.00 0.00 0.00 60 1008.7
20260504215329 81 225 0.0 0.0 0.00 0.00 0.00 59 1010.3
20260504215037 80 204 0.0 0.0 0.00 0.00 0.00 60 1008.7
20260504214825 81 172 0.0 0.0 0.00 0.00 0.00 60 1010.3
20260504214528 80 218 0.0 0.0 0.00 0.00 0.00 59 1008.7
20260504214319 81 151 0.0 0.0 0.00 0.00 0.00 60 1010.4
20260504214020 80 228 0.0 0.0 0.00 0.00 0.00 59 1008.8
20260504213836 81 193 0.0 0.0 0.00 0.00 0.00 60 1010.5
20260504213543 80 186 0.0 0.0 0.00 0.00 0.00 60 1009.0
20260504213332 81 185 0.0 0.0 0.00 0.00 0.00 61 1010.5
20260504213041 80 191 0.0 0.0 0.00 0.00 0.00 60 1008.9
20260504212827 81 221 0.0 0.0 0.00 0.00 0.00 61 1010.7
20260504212530 80 195 0.0 0.0 0.00 0.00 0.00 62 1009.0
20260504212325 81 211 0.0 0.0 0.00 0.00 0.00 60 1010.7
20260504212021 80 156 0.0 0.0 0.00 0.00 0.00 61 1009.0
20260504211840 80 158 0.0 0.0 0.00 0.00 0.00 61 1010.7
20260504211547 80 158 0.0 0.0 0.00 0.00 0.00 61 1008.9
20260504211353 80 206 0.0 0.0 0.00 0.00 0.00 60 1010.6
20260504211007 80 195 0.0 0.0 0.00 0.00 0.00 60 1009.1
20260504210830 81 181 0.0 0.0 0.00 0.00 0.00 60 1010.8
20260504210603 80 180 0.0 0.0 0.00 0.00 0.00 61 1009.3
20260504210327 81 162 0.0 0.0 0.00 0.00 0.00 61 1011.0
20260504210052 80 194 0.0 0.0 0.00 0.00 0.00 63 1009.3
20260504205821 80 214 0.0 0.0 0.00 0.00 0.00 63 1011.0
20260504205544 80 214 0.0 0.0 0.00 0.00 0.00 61 1009.6
20260504205318 80 228 0.0 0.0 0.00 0.00 0.00 62 1011.2
20260504205035 79 197 0.0 0.0 0.00 0.00 0.00 62 1009.7
20260504204850 80 218 0.0 0.0 0.00 0.00 0.00 62 1011.3
20260504204502 79 175 0.0 0.0 0.00 0.00 0.00 62 1009.9
20260504204325 80 197 0.0 0.0 0.00 0.00 0.00 62 1011.6
20260504204058 79 201 0.0 0.0 0.00 0.00 0.00 62 1010.0
20260504203822 79 194 0.0 0.0 0.00 0.00 0.00 63 1011.7
20260504203550 79 215 0.0 0.0 0.00 0.00 0.00 62 1010.1
20260504203338 80 212 0.0 0.0 0.00 0.00 0.00 63 1011.8
20260504203018 79 216 0.0 0.0 0.00 0.00 0.00 63 1010.2
20260504202814 79 157 0.0 0.0 0.00 0.00 0.00 62 1011.9
20260504202602 79 173 0.0 0.0 0.00 0.00 0.00 62 1010.5
20260504202329 79 228 0.0 0.0 0.00 0.00 0.00 64 1012.0
20260504202055 79 224 0.0 0.0 0.00 0.00 0.00 63 1010.5
20260504201846 79 164 0.0 0.0 0.00 0.00 0.00 63 1012.1
20260504201527 78 177 0.0 0.0 0.00 0.00 0.00 63 1010.6
20260504201322 79 226 0.0 0.0 0.00 0.00 0.00 64 1012.3
20260504201008 78 175 0.0 0.0 0.00 0.00 0.00 64 1010.7
20260504200818 79 164 0.0 0.0 0.00 0.00 0.00 64 1012.2
20260504200559 78 222 0.0 0.0 0.00 0.00 0.00 64 1010.8
20260504200315 78 214 0.0 0.0 0.00 0.00 0.00 63 1012.4
20260504200054 78 214 0.0 0.0 0.00 0.00 0.00 65 1010.8
20260504195830 78 214 0.0 0.0 0.00 0.00 0.00 64 1012.3
20260504195545 77 198 0.0 0.0 0.00 0.00 0.00 64 1010.8
20260504195326 78 222 0.0 0.0 0.00 0.00 0.00 63 1012.4
20260504195037 77 230 0.0 0.0 0.00 0.00 0.00 64 1010.9
20260504194842 78 223 0.0 0.0 0.00 0.00 0.00 64 1012.6
20260504194606 77 219 0.0 0.0 0.00 0.00 0.00 65 1011.2
20260504194316 77 206 0.0 0.0 0.00 0.00 0.00 65 1012.8
20260504194054 77 206 0.0 0.0 0.00 0.00 0.00 65 1011.2
20260504193832 77 193 0.0 0.0 0.00 0.00 0.00 64 1012.8
20260504193545 77 195 0.0 0.0 0.00 0.00 0.00 64 1011.1
20260504193329 77 186 0.0 0.0 0.00 0.00 0.00 64 1012.7
20260504193044 77 201 0.0 0.0 0.00 0.00 0.00 65 1011.3
20260504192824 77 169 0.0 0.0 0.00 0.00 0.00 66 1013.0
20260504192527 76 220 0.0 0.0 0.00 0.00 0.00 65 1011.4
20260504192320 77 216 0.0 0.0 0.00 0.00 0.00 67 1013.1
20260504192023 76 193 0.0 0.0 0.00 0.00 0.00 65 1011.7
20260504191816 77 173 0.0 0.0 0.00 0.00 0.00 66 1013.3
20260504191517 76 216 0.0 0.0 0.00 0.00 0.00 65 1011.5
20260504191314 77 224 0.0 0.0 0.00 0.00 0.00 65 1013.1
20260504191013 76 211 0.0 0.0 0.00 0.00 0.00 67 1011.5
20260504190830 77 226 0.0 0.0 0.00 0.00 0.00 67 1013.1
20260504190555 76 198 0.0 0.0 0.00 0.00 0.00 67 1011.8
20260504190325 76 198 0.0 0.0 0.00 0.00 0.00 67 1013.3
20260504190049 75 214 0.0 0.0 0.00 0.00 0.00 67 1012.0
20260504185821 76 172 0.0 0.0 0.00 0.00 0.00 67 1013.5
20260504185546 75 186 0.0 0.0 0.00 0.00 0.00 67 1012.0
20260504185319 75 211 0.0 0.0 0.00 0.00 0.00 68 1013.5
20260504185035 75 215 0.0 0.0 0.00 0.00 0.00 69 1012.0
20260504184854 75 236 0.0 0.0 0.00 0.00 0.00 69 1013.6
20260504184609 75 194 0.0 0.0 0.00 0.00 0.00 68 1012.1
20260504184330 75 226 0.0 0.0 0.00 0.00 0.00 68 1013.7
20260504184052 74 243 0.0 0.0 0.00 0.00 0.00 68 1012.3
20260504183826 75 181 0.0 0.0 0.00 0.00 0.00 68 1013.8
20260504183542 74 211 0.0 0.0 0.00 0.00 0.00 69 1012.3
20260504183342 75 208 0.0 0.0 0.00 0.00 0.00 69 1013.9
20260504183003 74 166 0.0 0.0 0.00 0.00 0.00 69 1012.3
20260504182818 74 198 0.0 0.0 0.00 0.00 0.00 70 1013.8
20260504182557 74 237 0.0 0.0 0.00 0.00 0.00 69 1012.5
20260504182314 74 211 0.0 0.0 0.00 0.00 0.00 69 1013.9
20260504182053 74 205 0.0 0.0 0.00 0.00 0.00 69 1012.5
20260504181830 74 172 0.0 0.0 0.00 0.00 0.00 71 1013.8
20260504181543 73 145 0.0 0.0 0.00 0.00 0.00 70 1012.4
20260504181325 74 209 0.0 0.0 0.00 0.00 0.00 71 1014.1
20260504181037 73 215 0.0 0.0 0.00 0.00 0.00 71 1012.7
20260504180819 73 216 0.0 0.0 0.00 0.00 0.00 71 1014.2
20260504180530 73 226 0.0 0.0 0.00 0.00 0.00 71 1012.8
20260504180317 73 210 0.0 0.0 0.00 0.00 0.00 70 1014.4
20260504180016 73 240 0.0 0.0 0.00 0.00 0.00 72 1012.8
20260504175833 73 241 0.0 0.0 0.00 0.00 0.00 72 1014.4
20260504175507 72 241 0.0 0.0 0.00 0.00 0.00 72 1012.8
20260504175344 72 229 0.0 0.0 0.00 0.00 0.00 72 1014.4
20260504175039 72 189 0.0 0.0 0.00 0.00 0.00 71 1012.9
20260504174820 72 215 0.0 15.6 0.00 0.00 0.00 72 1014.5
20260504174533 71 204 0.0 15.6 0.00 0.00 0.00 72 1013.0
20260504174317 72 186 0.0 16.5 0.00 0.00 0.00 73 1014.7
20260504174025 71 220 7.0 18.2 0.00 0.00 0.00 72 1013.2
20260504173833 71 208 10.4 18.2 0.00 0.00 0.00 73 1014.6
20260504173509 71 211 9.6 19.1 0.00 0.00 0.00 73 1013.1
20260504173329 71 226 10.4 19.1 0.00 0.00 0.00 73 1014.6
20260504173005 70 220 9.6 19.1 0.00 0.00 0.00 73 1013.1
20260504172825 71 214 11.3 19.1 0.00 0.00 0.00 73 1014.6
20260504172559 70 223 11.3 19.1 0.00 0.00 0.00 72 1013.2
20260504172322 71 197 12.2 19.1 0.00 0.00 0.00 73 1014.8
20260504172047 70 189 10.4 19.1 0.00 0.00 0.00 73 1013.3
20260504171818 71 191 12.2 19.1 0.00 0.00 0.00 73 1014.8
20260504171539 70 216 9.6 17.4 0.00 0.00 0.00 73 1013.4
20260504171314 71 207 10.4 17.4 0.00 0.00 0.00 73 1014.9
20260504171021 70 199 10.4 19.1 0.00 0.00 0.00 73 1013.5
20260504170830 71 195 10.4 20.0 0.00 0.00 0.00 73 1015.0
20260504170509 70 195 11.3 20.0 0.00 0.00 0.00 73 1013.4
20260504170326 71 185 13.0 20.0 0.00 0.00 0.00 73 1014.9
20260504170107 70 188 13.9 20.9 0.00 0.00 0.00 73 1013.5
20260504160338 69 191 14.8 24.3 0.00 0.00 0.00 73 1015.0
20260504151039 67 207 9.6 19.1 0.00 0.00 0.00 75 1014.2
20260504150826 68 206 12.2 19.1 0.00 0.00 0.00 76 1015.6
20260504150533 67 168 11.3 19.1 0.00 0.00 0.00 76 1014.1
20260504150323 67 151 13.0 19.1 0.00 0.00 0.00 75 1015.6
20260504141008 65 177 9.6 20.0 0.00 0.00 0.00 79 1014.3
20260504140818 65 204 11.3 20.0 0.00 0.00 0.00 79 1015.6
20260504140603 65 218 12.2 19.1 0.00 0.00 0.00 79 1014.2
20260504140315 65 222 11.3 19.1 0.00 0.00 0.00 79 1015.5
20260504130501 62 208 9.6 16.5 0.00 0.00 0.00 82 1014.0
20260504130320 62 179 9.6 16.5 0.00 0.00 0.00 82 1015.3
20260504110547 59 170 5.2 8.7 0.00 0.00 0.00 82 1013.8
20260504110322 59 191 4.3 8.7 0.00 0.00 0.00 82 1015.0
20260504100542 59 186 2.6 7.0 0.00 0.00 0.00 80 1014.5
20260504100332 60 201 3.5 7.0 0.00 0.00 0.00 80 1015.8
20260504081818 62 183 4.3 7.8 0.00 0.00 0.00 74 1016.1
20260504081600 61 174 3.5 8.7 0.00 0.00 0.00 74 1014.8
20260504081500 61 174 4.3 8.7 0.00 0.00 0.00 74 1014.8
20260504081314 62 190 4.3 8.7 0.00 0.00 0.00 74 1016.1
20260504081055 61 195 4.3 8.7 0.00 0.00 0.00 74 1014.8
20260504080850 62 210 5.2 8.7 0.00 0.00 0.00 74 1016.0
20260504080524 61 195 3.5 9.6 0.00 0.00 0.00 74 1014.8
20260504080325 62 195 5.2 9.6 0.00 0.00 0.00 74 1016.1
20260504070331 62 173 7.0 13.9 0.00 0.00 0.00 70 1016.8
20260504050526 61 191 3.5 5.2 0.00 0.00 0.00 66 1017.1
20260504050326 62 191 3.5 5.2 0.00 0.00 0.00 66 1018.2
20260504050123 61 191 2.6 4.3 0.00 0.00 0.00 66 1017.1
20260504045832 62 191 2.6 4.3 0.00 0.00 0.00 66 1018.3
20260504045540 61 191 1.7 4.3 0.00 0.00 0.00 66 1017.1
20260504045328 62 191 2.6 4.3 0.00 0.00 0.00 66 1018.3
20260504045034 61 191 2.6 4.3 0.00 0.00 0.00 66 1017.1
20260504044825 62 191 3.5 4.3 0.00 0.00 0.00 66 1018.2
20260504044532 61 191 2.6 4.3 0.00 0.00 0.00 66 1017.1
20260504044321 62 191 2.6 3.5 0.00 0.00 0.00 66 1018.3
20260504044016 61 191 1.7 3.5 0.00 0.00 0.00 66 1017.2
20260504043818 62 191 2.6 3.5 0.00 0.00 0.00 66 1018.4
20260504043602 61 191 1.7 3.5 0.00 0.00 0.00 66 1017.2
20260504043315 62 191 2.6 3.5 0.00 0.00 0.00 66 1018.3
20260504043103 61 191 1.7 3.5 0.00 0.00 0.00 66 1017.1
20260504042830 62 191 1.7 3.5 0.00 0.00 0.00 66 1018.4
20260504042551 61 191 1.7 3.5 0.00 0.00 0.00 66 1017.2
20260504042327 62 191 1.7 3.5 0.00 0.00 0.00 66 1018.5
20260504042044 61 191 1.7 3.5 0.00 0.00 0.00 66 1017.2
20260504041824 62 191 1.7 3.5 0.00 0.00 0.00 66 1018.5
20260504041537 61 191 1.7 3.5 0.00 0.00 0.00 65 1017.4
20260504041320 62 191 1.7 3.5 0.00 0.00 0.00 65 1018.6
20260504041033 61 191 1.7 3.5 0.00 0.00 0.00 65 1017.4
20260504040851 62 191 1.7 3.5 0.00 0.00 0.00 65 1018.6
20260504040558 61 191 1.7 3.5 0.00 0.00 0.00 65 1017.5
20260504040326 62 191 2.6 4.3 0.00 0.00 0.00 66 1018.7
20260504040051 61 191 1.7 4.3 0.00 0.00 0.00 66 1017.6
20260504035822 62 191 2.6 4.3 0.00 0.00 0.00 66 1018.8
20260504035543 61 191 2.6 4.3 0.00 0.00 0.00 66 1017.7
20260504035318 62 191 1.7 3.5 0.00 0.00 0.00 66 1018.8
20260504035037 61 191 1.7 3.5 0.00 0.00 0.00 65 1017.6
20260504034836 62 191 1.7 4.3 0.00 0.00 0.00 65 1018.7
20260504034616 62 191 1.7 4.3 0.00 0.00 0.00 65 1017.4
20260504034332 62 191 2.6 4.3 0.00 0.00 0.00 65 1018.6
20260504034054 62 191 1.7 4.3 0.00 0.00 0.00 65 1017.4
20260504033827 62 191 1.7 3.5 0.00 0.00 0.00 65 1018.5
20260504033546 62 191 1.7 3.5 0.00 0.00 0.00 65 1017.2
20260504033323 62 191 2.6 4.3 0.00 0.00 0.00 65 1018.4
20260504033050 62 191 2.6 4.3 0.00 0.00 0.00 65 1017.3
20260504032838 63 191 2.6 4.3 0.00 0.00 0.00 65 1018.5
20260504032604 62 191 2.6 5.2 0.00 0.00 0.00 65 1017.3
20260504032333 63 191 3.5 5.2 0.00 0.00 0.00 64 1018.5
20260504032035 62 178 2.6 5.2 0.00 0.00 0.00 64 1017.4
20260504031829 63 189 3.5 5.2 0.00 0.00 0.00 64 1018.5
20260504031527 62 185 2.6 6.1 0.00 0.00 0.00 64 1017.1
20260504031324 63 187 3.5 6.1 0.00 0.00 0.00 64 1018.3
20260504031012 63 158 3.5 6.1 0.00 0.00 0.00 64 1017.2
20260504030841 63 166 4.3 6.1 0.00 0.00 0.00 64 1018.3
20260504030542 63 189 3.5 6.1 0.00 0.00 0.00 64 1017.2
20260504030316 63 180 3.5 6.1 0.00 0.00 0.00 64 1018.3
20260504030034 63 184 3.5 6.1 0.00 0.00 0.00 64 1017.2
20260504025833 63 180 4.3 6.1 0.00 0.00 0.00 64 1018.5
20260504025528 63 200 2.6 5.2 0.00 0.00 0.00 64 1017.3
20260504025329 63 181 3.5 5.2 0.00 0.00 0.00 64 1018.5
20260504025025 63 181 1.7 4.3 0.00 0.00 0.00 64 1017.3
20260504024825 64 181 2.6 4.3 0.00 0.00 0.00 63 1018.4
20260504024526 63 181 1.7 4.3 0.00 0.00 0.00 63 1017.3
20260504024321 64 181 2.6 3.5 0.00 0.00 0.00 63 1018.5
20260504024005 64 181 1.7 3.5 0.00 0.00 0.00 62 1017.4
20260504023820 64 181 2.6 3.5 0.00 0.00 0.00 62 1018.5
20260504023556 64 181 1.7 3.5 0.00 0.00 0.00 62 1017.4
20260504023316 65 181 2.6 3.5 0.00 0.00 0.00 61 1018.5
20260504023050 64 181 1.7 3.5 0.00 0.00 0.00 61 1017.3
20260504022832 65 181 2.6 3.5 0.00 0.00 0.00 61 1018.5
20260504022544 64 181 1.7 3.5 0.00 0.00 0.00 61 1017.3
20260504022329 65 181 1.7 3.5 0.00 0.00 0.00 60 1018.5
20260504022037 65 181 1.7 3.5 0.00 0.00 0.00 60 1017.3
20260504021825 65 181 2.6 3.5 0.00 0.00 0.00 60 1018.4
20260504021529 65 181 1.7 3.5 0.00 0.00 0.00 60 1017.2
20260504021322 66 181 2.6 3.5 0.00 0.00 0.00 59 1018.5
20260504021020 65 181 1.7 3.5 0.00 0.00 0.00 59 1017.3
20260504020818 66 181 2.6 3.5 0.00 0.00 0.00 59 1018.5
20260504020514 65 181 1.7 3.5 0.00 0.00 0.00 59 1017.3
20260504020316 66 181 2.6 3.5 0.00 0.00 0.00 59 1018.4
20260504020104 66 181 2.6 3.5 0.00 0.00 0.00 59 1017.2
20260504015832 66 182 2.6 3.5 0.00 0.00 0.00 58 1018.4
20260504015556 66 181 1.7 3.5 0.00 0.00 0.00 58 1017.3
20260504015328 67 181 2.6 3.5 0.00 0.00 0.00 58 1018.5
20260504015051 66 181 2.6 3.5 0.00 0.00 0.00 57 1017.3
20260504014824 67 181 2.6 3.5 0.00 0.00 0.00 57 1018.4
20260504014545 67 181 1.7 2.6 0.00 0.00 0.00 56 1017.3
20260504014322 67 181 1.7 2.6 0.00 0.00 0.00 56 1018.4
20260504014037 67 181 1.7 3.5 0.00 0.00 0.00 56 1017.2
20260504013818 68 181 1.7 3.5 0.00 0.00 0.00 56 1018.3
20260504013534 67 181 1.7 3.5 0.00 0.00 0.00 55 1017.1
20260504013314 68 181 2.6 3.5 0.00 0.00 0.00 55 1018.1
20260504013036 68 181 1.7 3.5 0.00 0.00 0.00 54 1016.9
20260504012831 68 181 2.6 3.5 0.00 0.00 0.00 54 1018.0
20260504012508 68 181 1.7 3.5 0.00 0.00 0.00 54 1016.9
20260504012328 69 181 2.6 3.5 0.00 0.00 0.00 54 1018.1
20260504012105 68 181 1.7 3.5 0.00 0.00 0.00 54 1016.9
20260504011823 69 181 2.6 3.5 0.00 0.00 0.00 53 1018.0
20260504011554 69 181 1.7 3.5 0.00 0.00 0.00 53 1016.8
20260504011320 69 181 2.6 4.3 0.00 0.00 0.00 53 1018.0
20260504011047 69 181 2.6 4.3 0.00 0.00 0.00 53 1016.8
20260504010817 70 164 2.6 4.3 0.00 0.00 0.00 53 1017.9
20260504010540 69 170 2.6 5.2 0.00 0.00 0.00 52 1016.6
20260504010332 70 156 3.5 5.2 0.00 0.00 0.00 52 1017.8
20260504010032 70 152 3.5 5.2 0.00 0.00 0.00 52 1016.7
20260504005828 70 173 3.5 4.3 0.00 0.00 0.00 52 1017.9